EDW3AM HECA-LSZH

Flight info

Callsign EDW3AM
Flight time N/A
Altitude 36000
Route HECA/05C CVO L617 MENKU Y661 ANTAR DCT LAPSO DCT NEVRA DCT TALAS DCT ENFAR DCT NEPSI DCT RUDIK DCT ERKIR DCT KPT L856 NEGRA
Aircraft A343/H-SDE2E3FGHIJ4J5M1RWXY/LB1D1

Departure

Time N/A
Airport Cairo International Airport (HECA)

Arrival

Time 2026-05-05 18:48
Airport Zürich Airport (LSZH)
Time Latitude Longitude Altitude Speed Heading
2026-05-05 17:01 41.39927 21.28021 36027 ft 414 kts 304°
2026-05-05 17:01 41.43125 21.21637 36034 ft 415 kts 304°
2026-05-05 17:02 41.46346 21.15195 36029 ft 420 kts 304°
2026-05-05 17:02 41.49553 21.08768 36033 ft 417 kts 304°
2026-05-05 17:03 41.52748 21.02350 36029 ft 414 kts 304°
2026-05-05 17:03 41.55930 20.95942 36038 ft 414 kts 304°
2026-05-05 17:04 41.59112 20.89522 36039 ft 414 kts 304°
2026-05-05 17:04 41.62289 20.83100 36051 ft 415 kts 304°
2026-05-05 17:05 41.65445 20.76707 36052 ft 415 kts 303°
2026-05-05 17:05 41.68615 20.70272 36059 ft 414 kts 303°
2026-05-05 17:06 41.71779 20.63836 36056 ft 414 kts 303°
2026-05-05 17:06 41.74939 20.57397 36070 ft 414 kts 303°
2026-05-05 17:07 41.78651 20.51579 36078 ft 416 kts 316°
2026-05-05 17:07 41.83012 20.46443 36067 ft 418 kts 318°
2026-05-05 17:08 41.87475 20.41428 36076 ft 419 kts 318°
2026-05-05 17:08 41.91950 20.36410 36073 ft 419 kts 318°
2026-05-05 17:09 41.96412 20.31368 36078 ft 419 kts 318°
2026-05-05 17:09 42.00838 20.26341 36082 ft 420 kts 318°
2026-05-05 17:10 42.05304 20.21258 36070 ft 421 kts 318°
2026-05-05 17:10 42.09781 20.16155 36073 ft 422 kts 318°
2026-05-05 17:11 42.14256 20.11045 36064 ft 422 kts 317°
2026-05-05 17:11 42.18699 20.05960 36071 ft 422 kts 317°
2026-05-05 17:12 42.23169 20.00834 36075 ft 422 kts 317°
2026-05-05 17:12 42.27634 19.95702 36078 ft 422 kts 317°
2026-05-05 17:13 42.32111 19.90549 36074 ft 423 kts 317°
2026-05-05 17:13 42.36557 19.85422 36079 ft 423 kts 317°
2026-05-05 17:14 42.41032 19.80254 36070 ft 423 kts 317°
2026-05-05 17:14 42.45502 19.75077 36073 ft 423 kts 317°
2026-05-05 17:15 42.49967 19.69895 36076 ft 423 kts 317°
2026-05-05 17:15 42.54441 19.64694 36073 ft 425 kts 317°
2026-05-05 17:16 42.58903 19.59498 36071 ft 426 kts 317°
2026-05-05 17:16 42.63395 19.54256 36074 ft 426 kts 317°
2026-05-05 17:17 42.67880 19.49012 36070 ft 425 kts 317°
2026-05-05 17:17 42.72361 19.43763 36069 ft 425 kts 316°
2026-05-05 17:18 42.76804 19.38549 36072 ft 425 kts 316°
2026-05-05 17:18 42.81291 19.33270 36070 ft 427 kts 316°
2026-05-05 17:19 42.85786 19.27973 36068 ft 427 kts 316°
2026-05-05 17:19 42.90277 19.22668 36069 ft 427 kts 316°
2026-05-05 17:20 42.94738 19.17391 36070 ft 427 kts 316°
2026-05-05 17:20 42.99224 19.12072 36071 ft 427 kts 316°
2026-05-05 17:21 43.03715 19.06736 36067 ft 428 kts 316°
2026-05-05 17:22 43.10434 18.98735 36062 ft 429 kts 316°
2026-05-05 17:22 43.14931 18.93366 36065 ft 429 kts 316°
2026-05-05 17:23 43.19424 18.87989 36060 ft 429 kts 316°
2026-05-05 17:23 43.23919 18.82599 36067 ft 429 kts 316°
2026-05-05 17:24 43.28402 18.77214 36048 ft 428 kts 316°
2026-05-05 17:24 43.32750 18.71709 36061 ft 428 kts 312°
2026-05-05 17:25 43.36889 18.65850 36074 ft 427 kts 311°
2026-05-05 17:25 43.41014 18.59971 36073 ft 427 kts 311°
2026-05-05 17:26 43.45176 18.54135 36075 ft 427 kts 312°
2026-05-05 17:26 43.49326 18.48355 36079 ft 428 kts 312°
2026-05-05 17:27 43.53516 18.42517 36076 ft 429 kts 312°
2026-05-05 17:27 43.57717 18.36647 36078 ft 430 kts 312°
2026-05-05 17:28 43.61916 18.30766 36058 ft 430 kts 312°
2026-05-05 17:28 43.66081 18.24917 36055 ft 430 kts 312°
2026-05-05 17:29 43.70276 18.19016 36055 ft 430 kts 312°
2026-05-05 17:29 43.74463 18.13113 36061 ft 430 kts 312°
2026-05-05 17:30 43.78654 18.07193 36054 ft 430 kts 312°
2026-05-05 17:30 43.82811 18.01309 36057 ft 430 kts 312°
2026-05-05 17:31 43.86995 17.95371 36060 ft 431 kts 312°
2026-05-05 17:31 43.91179 17.89423 36061 ft 431 kts 311°
2026-05-05 17:32 43.95365 17.83455 36058 ft 432 kts 311°
2026-05-05 17:32 43.99521 17.77520 36053 ft 432 kts 311°
2026-05-05 17:33 44.03706 17.71531 36053 ft 432 kts 311°
2026-05-05 17:33 44.07893 17.65526 36064 ft 432 kts 311°
2026-05-05 17:34 44.12081 17.59507 36041 ft 433 kts 311°
2026-05-05 17:34 44.16238 17.53518 36043 ft 433 kts 311°
2026-05-05 17:35 44.20418 17.47485 36041 ft 433 kts 311°
2026-05-05 17:35 44.24598 17.41438 36030 ft 433 kts 311°
2026-05-05 17:36 44.28783 17.35370 36020 ft 434 kts 311°
2026-05-05 17:36 44.32970 17.29286 36021 ft 435 kts 311°
2026-05-05 17:37 44.37128 17.23230 36036 ft 435 kts 311°
2026-05-05 17:37 44.41308 17.17129 36008 ft 434 kts 311°
2026-05-05 17:38 44.45488 17.11016 36003 ft 435 kts 311°
2026-05-05 17:38 44.49678 17.04872 36014 ft 438 kts 311°
2026-05-05 17:39 44.53855 16.98738 36013 ft 438 kts 311°
2026-05-05 17:39 44.58055 16.92553 36009 ft 438 kts 311°
2026-05-05 17:40 44.62250 16.86362 35999 ft 438 kts 311°
2026-05-05 17:40 44.66443 16.80158 36013 ft 439 kts 310°
2026-05-05 17:41 44.70628 16.73954 35990 ft 440 kts 310°
2026-05-05 17:41 44.74840 16.67698 36002 ft 440 kts 310°
2026-05-05 17:42 44.79046 16.61434 35989 ft 440 kts 310°
2026-05-05 17:42 44.83245 16.55168 35990 ft 440 kts 310°
2026-05-05 17:43 44.87452 16.48875 35993 ft 442 kts 310°
2026-05-05 17:43 44.91636 16.42600 35989 ft 442 kts 310°
2026-05-05 17:44 44.95845 16.36275 35992 ft 442 kts 310°
2026-05-05 17:44 45.00053 16.29937 35997 ft 442 kts 310°
2026-05-05 17:45 45.04202 16.23513 35987 ft 443 kts 309°
2026-05-05 17:45 45.08279 16.17049 35986 ft 444 kts 309°
2026-05-05 17:46 45.12393 16.10529 35990 ft 444 kts 309°
2026-05-05 17:46 45.16512 16.04016 35990 ft 444 kts 309°
2026-05-05 17:47 45.20631 15.97499 35987 ft 444 kts 309°
2026-05-05 17:47 45.24757 15.90956 35985 ft 446 kts 309°
2026-05-05 17:48 45.28862 15.84430 35985 ft 446 kts 308°
2026-05-05 17:48 45.32988 15.77855 35979 ft 446 kts 308°
2026-05-05 17:49 45.37109 15.71272 35979 ft 446 kts 308°
2026-05-05 17:49 45.41200 15.64719 35974 ft 447 kts 309°
2026-05-05 17:50 45.45333 15.58082 35973 ft 449 kts 308°
2026-05-05 17:50 45.49471 15.51426 35974 ft 449 kts 308°
2026-05-05 17:51 45.53609 15.44755 35975 ft 448 kts 308°
2026-05-05 17:51 45.57734 15.38087 35969 ft 448 kts 308°
2026-05-05 17:52 45.61825 15.31455 35968 ft 448 kts 308°
2026-05-05 17:52 45.65942 15.24766 35969 ft 448 kts 308°
2026-05-05 17:53 45.70057 15.18065 35971 ft 448 kts 308°
2026-05-05 17:53 45.74164 15.11360 35969 ft 448 kts 308°
2026-05-05 17:54 45.78245 15.04684 35977 ft 449 kts 308°
2026-05-05 17:54 45.82371 14.97913 35972 ft 452 kts 308°
2026-05-05 17:55 45.86508 14.91110 35977 ft 452 kts 308°
2026-05-05 17:55 45.90641 14.84299 35976 ft 452 kts 308°
2026-05-05 17:56 45.94742 14.77521 35981 ft 452 kts 308°
2026-05-05 17:56 45.98864 14.70692 35988 ft 452 kts 307°
2026-05-05 17:57 46.02979 14.63858 35992 ft 452 kts 308°
2026-05-05 17:57 46.07093 14.57008 35992 ft 453 kts 308°
2026-05-05 17:58 46.11185 14.50180 35992 ft 453 kts 308°
2026-05-05 17:58 46.15298 14.43298 35999 ft 453 kts 307°
2026-05-05 17:59 46.19409 14.36403 35998 ft 453 kts 307°
2026-05-05 17:59 46.23517 14.29495 35993 ft 453 kts 307°
2026-05-05 18:00 46.27622 14.22576 35989 ft 453 kts 307°
2026-05-05 18:00 46.31695 14.15692 35991 ft 454 kts 307°
2026-05-05 18:01 46.35799 14.08736 35980 ft 454 kts 307°
2026-05-05 18:01 46.39897 14.01776 35979 ft 454 kts 306°
2026-05-05 18:02 46.43990 13.94807 35982 ft 454 kts 306°
2026-05-05 18:02 46.48047 13.87884 35979 ft 454 kts 306°
2026-05-05 18:03 46.52130 13.80894 35968 ft 454 kts 306°
2026-05-05 18:03 46.56221 13.73875 35963 ft 456 kts 306°
2026-05-05 18:04 46.60307 13.66846 35978 ft 455 kts 306°
2026-05-05 18:04 46.64388 13.59809 35975 ft 455 kts 306°
2026-05-05 18:05 46.68433 13.52814 35975 ft 455 kts 306°
2026-05-05 18:05 46.72506 13.45750 35978 ft 456 kts 306°
2026-05-05 18:06 46.76590 13.38654 35970 ft 457 kts 306°
2026-05-05 18:06 46.80676 13.31534 35967 ft 457 kts 306°
2026-05-05 18:07 46.84733 13.24451 35980 ft 458 kts 306°
2026-05-05 18:07 46.88814 13.17300 35964 ft 458 kts 306°
2026-05-05 18:08 46.92892 13.10141 35958 ft 458 kts 306°
2026-05-05 18:08 46.96960 13.02976 35942 ft 457 kts 305°
2026-05-05 18:09 47.00995 12.95849 35931 ft 458 kts 305°
2026-05-05 18:09 47.05054 12.88664 35921 ft 458 kts 305°
2026-05-05 18:10 47.09111 12.81466 35913 ft 458 kts 305°
2026-05-05 18:10 47.13166 12.74253 35893 ft 458 kts 305°
2026-05-05 18:11 47.17211 12.66997 35895 ft 457 kts 303°
2026-05-05 18:11 47.20343 12.59005 35868 ft 447 kts 287°
2026-05-05 18:12 47.22301 12.50410 35881 ft 447 kts 282°
2026-05-05 18:12 47.23964 12.41628 35867 ft 445 kts 281°
2026-05-05 18:13 47.25590 12.32839 35865 ft 445 kts 281°
2026-05-05 18:13 47.27242 12.24063 35861 ft 445 kts 281°
2026-05-05 18:14 47.28908 12.15281 35865 ft 446 kts 281°
2026-05-05 18:14 47.30572 12.06502 35860 ft 445 kts 281°
2026-05-05 18:15 47.32217 11.97779 35859 ft 445 kts 281°
2026-05-05 18:15 47.33863 11.88992 35858 ft 445 kts 281°
2026-05-05 18:16 47.35502 11.80203 35854 ft 444 kts 281°
2026-05-05 18:16 47.36859 11.72898 35854 ft 444 kts 281°
2026-05-05 18:17 47.38482 11.64102 35848 ft 445 kts 281°
2026-05-05 18:17 47.40367 11.53866 35852 ft 445 kts 280°
2026-05-05 18:18 47.41720 11.46480 35850 ft 445 kts 280°
2026-05-05 18:18 47.43319 11.37720 35843 ft 444 kts 280°
2026-05-05 18:19 47.44919 11.28891 35565 ft 445 kts 279°
2026-05-05 18:19 47.45717 11.24487 35252 ft 444 kts 279°
2026-05-05 18:19 47.46513 11.20066 34973 ft 446 kts 279°
2026-05-05 18:19 47.47309 11.15628 34669 ft 447 kts 279°
2026-05-05 18:20 47.48105 11.11184 34269 ft 447 kts 279°
2026-05-05 18:20 47.48824 11.06792 33807 ft 442 kts 274°
2026-05-05 18:20 47.49144 11.02325 33273 ft 433 kts 266°
2026-05-05 18:20 47.49148 10.97904 32738 ft 428 kts 264°
2026-05-05 18:21 47.49082 10.93530 32209 ft 424 kts 264°
2026-05-05 18:21 47.49013 10.89178 31718 ft 422 kts 265°
2026-05-05 18:21 47.49189 10.84847 31215 ft 423 kts 272°
2026-05-05 18:21 47.49742 10.80576 30703 ft 422 kts 278°
2026-05-05 18:22 47.50497 10.76395 30232 ft 420 kts 281°
2026-05-05 18:22 47.51330 10.72269 29742 ft 418 kts 282°
2026-05-05 18:22 47.52186 10.68232 29177 ft 416 kts 282°
2026-05-05 18:22 47.53061 10.64160 28623 ft 414 kts 282°
2026-05-05 18:23 47.53932 10.60102 28096 ft 413 kts 282°
2026-05-05 18:23 47.54789 10.56068 27549 ft 410 kts 282°
2026-05-05 18:23 47.55632 10.52061 27025 ft 406 kts 282°
2026-05-05 18:23 47.56464 10.48071 26534 ft 403 kts 283°
2026-05-05 18:24 47.57283 10.44114 26033 ft 401 kts 283°
2026-05-05 18:24 47.58095 10.40177 25550 ft 399 kts 283°
2026-05-05 18:24 47.58900 10.36259 25055 ft 397 kts 283°
2026-05-05 18:24 47.59700 10.32360 24577 ft 394 kts 283°
2026-05-05 18:25 47.60484 10.28537 24111 ft 392 kts 283°
2026-05-05 18:25 47.61019 10.25926 23796 ft 391 kts 283°
2026-05-05 18:25 47.62062 10.20833 23119 ft 388 kts 283°
2026-05-05 18:25 47.62842 10.17013 22595 ft 386 kts 283°
2026-05-05 18:26 47.63617 10.13209 22048 ft 384 kts 283°
2026-05-05 18:26 47.64385 10.09434 21538 ft 382 kts 283°
2026-05-05 18:26 47.65146 10.05677 21016 ft 378 kts 283°
2026-05-05 18:26 47.65885 10.02041 20515 ft 371 kts 283°
2026-05-05 18:27 47.66625 9.98382 20015 ft 369 kts 283°
2026-05-05 18:27 47.67358 9.94752 19520 ft 366 kts 284°
2026-05-05 18:27 47.68085 9.91141 19036 ft 363 kts 284°
2026-05-05 18:27 47.68804 9.87565 18559 ft 361 kts 284°
2026-05-05 18:28 47.70223 9.80484 17552 ft 355 kts 284°
2026-05-05 18:28 47.70924 9.76982 17007 ft 352 kts 284°
2026-05-05 18:28 47.71618 9.73509 16487 ft 350 kts 284°
2026-05-05 18:29 47.72278 9.70066 15980 ft 343 kts 281°
2026-05-05 18:29 47.72676 9.66676 15540 ft 334 kts 274°
2026-05-05 18:29 47.72782 9.63266 15091 ft 327 kts 269°
2026-05-05 18:29 47.72769 9.59921 14651 ft 322 kts 267°
2026-05-05 18:30 47.72695 9.56608 14213 ft 320 kts 266°
2026-05-05 18:30 47.72594 9.53319 13784 ft 317 kts 266°
2026-05-05 18:30 47.72482 9.50058 13318 ft 315 kts 266°
2026-05-05 18:30 47.72380 9.46818 12831 ft 313 kts 266°
2026-05-05 18:31 47.72288 9.43605 12376 ft 310 kts 266°
2026-05-05 18:31 47.72199 9.40416 11914 ft 308 kts 266°
2026-05-05 18:31 47.72109 9.37256 11467 ft 304 kts 266°
2026-05-05 18:31 47.72023 9.34228 11010 ft 290 kts 265°
2026-05-05 18:32 47.71939 9.31304 10561 ft 277 kts 265°
2026-05-05 18:32 47.71856 9.28506 10135 ft 266 kts 265°
2026-05-05 18:32 47.71776 9.25833 9913 ft 252 kts 264°
2026-05-05 18:32 47.71707 9.23522 9865 ft 242 kts 264°
2026-05-05 18:33 47.71670 9.22341 9855 ft 236 kts 264°
2026-05-05 18:33 47.71595 9.19932 9863 ft 233 kts 264°
2026-05-05 18:33 47.71517 9.17530 9864 ft 233 kts 264°
2026-05-05 18:33 47.71437 9.15123 9868 ft 234 kts 264°
2026-05-05 18:34 47.71359 9.12742 9872 ft 234 kts 264°
2026-05-05 18:34 47.71279 9.10334 9875 ft 233 kts 264°
2026-05-05 18:34 47.71200 9.07927 9875 ft 233 kts 264°
2026-05-05 18:34 47.71122 9.05518 9875 ft 234 kts 264°
2026-05-05 18:35 47.71045 9.03120 9863 ft 234 kts 264°
2026-05-05 18:35 47.70966 9.00704 9640 ft 234 kts 264°
2026-05-05 18:35 47.70888 8.98295 9376 ft 233 kts 264°
2026-05-05 18:35 47.70809 8.95897 9112 ft 232 kts 264°
2026-05-05 18:36 47.70729 8.93509 8855 ft 231 kts 264°
2026-05-05 18:36 47.70648 8.91131 8596 ft 230 kts 264°
2026-05-05 18:36 47.70569 8.88793 8347 ft 229 kts 264°
2026-05-05 18:36 47.70489 8.86442 8082 ft 227 kts 264°
2026-05-05 18:37 47.70416 8.84106 7897 ft 226 kts 264°
2026-05-05 18:37 47.70340 8.81773 7878 ft 227 kts 264°
2026-05-05 18:37 47.70258 8.79438 7877 ft 226 kts 264°
2026-05-05 18:37 47.70174 8.77100 7885 ft 227 kts 264°
2026-05-05 18:38 47.70090 8.74766 7887 ft 227 kts 264°
2026-05-05 18:38 47.70006 8.72447 7878 ft 227 kts 264°
2026-05-05 18:38 47.69921 8.70098 7878 ft 227 kts 264°
2026-05-05 18:38 47.69836 8.67759 7878 ft 227 kts 264°
2026-05-05 18:39 47.69844 8.65414 7830 ft 230 kts 271°
2026-05-05 18:39 47.70013 8.63083 7578 ft 230 kts 273°
2026-05-05 18:39 47.70209 8.60727 7314 ft 230 kts 273°
2026-05-05 18:39 47.70405 8.58377 7046 ft 229 kts 274°
2026-05-05 18:40 47.70597 8.56024 6782 ft 229 kts 273°
2026-05-05 18:40 47.70786 8.53666 6517 ft 230 kts 273°
2026-05-05 18:40 47.70972 8.51308 6253 ft 230 kts 273°
2026-05-05 18:40 47.71155 8.48962 5952 ft 228 kts 273°
2026-05-05 18:41 47.71329 8.46633 5630 ft 225 kts 274°
2026-05-05 18:41 47.71351 8.44339 5318 ft 220 kts 257°
2026-05-05 18:41 47.70659 8.42364 5070 ft 217 kts 230°
2026-05-05 18:41 47.69590 8.40810 4995 ft 219 kts 224°
2026-05-05 18:42 47.68445 8.39308 4998 ft 220 kts 223°
2026-05-05 18:42 47.67302 8.37816 4994 ft 219 kts 223°
2026-05-05 18:42 47.66165 8.36339 4828 ft 214 kts 223°
2026-05-05 18:42 47.65033 8.35008 4547 ft 202 kts 212°
2026-05-05 18:43 47.63689 8.34588 4289 ft 199 kts 181°
2026-05-05 18:43 47.62340 8.34920 4030 ft 195 kts 164°
2026-05-05 18:43 47.61174 8.35943 4001 ft 198 kts 144°
2026-05-05 18:43 47.60165 8.37289 4024 ft 196 kts 141°
2026-05-05 18:44 47.59166 8.38667 4014 ft 197 kts 141°
2026-05-05 18:44 47.58156 8.40048 3994 ft 198 kts 142°
2026-05-05 18:44 47.57136 8.41434 3871 ft 198 kts 142°
2026-05-05 18:44 47.56132 8.42802 3592 ft 194 kts 141°
2026-05-05 18:45 47.55166 8.44125 3317 ft 183 kts 141°
2026-05-05 18:45 47.54264 8.45358 3081 ft 169 kts 141°
2026-05-05 18:45 47.53457 8.46459 2850 ft 148 kts 141°
2026-05-05 18:45 47.52723 8.47460 2674 ft 140 kts 141°
2026-05-05 18:46 47.52010 8.48432 2498 ft 139 kts 141°
2026-05-05 18:46 47.51303 8.49395 2293 ft 138 kts 140°
2026-05-05 18:46 47.50613 8.50337 2060 ft 135 kts 140°
2026-05-05 18:46 47.49920 8.51284 1892 ft 137 kts 139°
2026-05-05 18:47 47.49227 8.52238 1715 ft 135 kts 139°
2026-05-05 18:47 47.48540 8.53170 1516 ft 132 kts 138°
2026-05-05 18:47 47.47878 8.54066 1414 ft 118 kts 138°
2026-05-05 18:47 47.47405 8.54707 1406 ft 71 kts 137°
2026-05-05 18:48 47.47104 8.55118 1400 ft 48 kts 137°
2026-05-05 18:48 47.46881 8.55421 1406 ft 38 kts 137°
2026-05-05 18:48 47.46708 8.55618 1405 ft 29 kts 152°
2026-05-05 18:48 47.46563 8.55689 1403 ft 13 kts 167°
2026-05-05 18:49 47.46492 8.55713 1408 ft 8 kts 167°
2026-05-05 18:49 47.46455 8.55725 1408 ft 3 kts 167°
2026-05-05 18:49 47.46434 8.55732 1403 ft 2 kts 167°
2026-05-05 18:49 47.46433 8.55732 1403 ft 0 kts 167°
2026-05-05 18:50 47.46433 8.55733 1403 ft 0 kts 167°
2026-05-05 18:50 47.46422 8.55736 1405 ft 3 kts 167°
2026-05-05 18:50 47.46392 8.55750 1406 ft 5 kts 156°
2026-05-05 18:51 47.46367 8.55780 1412 ft 5 kts 138°
2026-05-05 18:51 47.46352 8.55799 1413 ft 2 kts 137°
2026-05-05 18:51 47.46341 8.55813 1412 ft 2 kts 137°
2026-05-05 18:51 47.46329 8.55831 1414 ft 3 kts 137°
2026-05-05 18:52 47.46303 8.55866 1414 ft 8 kts 137°
2026-05-05 18:52 47.46263 8.55900 1415 ft 5 kts 178°
2026-05-05 18:52 47.46244 8.55883 1412 ft 3 kts 220°
2026-05-05 18:52 47.46234 8.55838 1414 ft 8 kts 261°
2026-05-05 18:53 47.46239 8.55729 1409 ft 11 kts 276°
2026-05-05 18:53 47.46246 8.55642 1405 ft 3 kts 276°
2026-05-05 18:53 47.46249 8.55592 1409 ft 5 kts 276°
2026-05-05 18:53 47.46254 8.55529 1410 ft 7 kts 276°
2026-05-05 18:54 47.46259 8.55449 1406 ft 6 kts 276°
2026-05-05 18:54 47.46245 8.55412 1407 ft 3 kts 216°
2026-05-05 18:54 47.46223 8.55400 1405 ft 4 kts 197°
2026-05-05 18:54 47.46204 8.55401 1408 ft 2 kts 175°
2026-05-05 18:55 47.46189 8.55398 1410 ft 3 kts 188°
2026-05-05 18:55 47.46186 8.55398 1409 ft 0 kts 187°